Flag for Tuvalu Weather past 2 weeks in Funafuti, Tuvalu

Now
82 °F

Scattered showers. Broken clouds.


Feels Like: 92 °F
Forecast: 82 / 87 °F
Wind: 2 mph from North

Location: Funafuti

Current Time: May 23, 2015 at 8:13:25 AM

Latest Report: May 23, 2015 at 7:00 AM


Visibility: N/A

Pressure: 29.86 "Hg

Humidity: 89%

Dew point: 79 °F

Location of FunafutiLocation

Historic Weather in Funafuti — Graph

°F

Funafuti temperature yesterday

Maximum temperature yesterday: 84 °F (at 4:00 PM)
Minimum temperature yesterday: 75 °F (at 8:00 AM)
Average temperature yesterday: 82 °F

Past Weeks' High & Low Weather Summary

 TemperatureHumidityPressure
High91 °F (May 15, 2:00 PM)100% (May 22, 8:00 AM)30.36 "Hg (May 22, 8:00 AM)
Low75 °F (May 18, 5:00 PM)66% (May 11, 11:00 AM)29.68 "Hg (May 8, 3:00 PM)
Average85 °F81%29.80 "Hg
* Reported May 8 7:00 AM — May 23 7:00 AM, Funafuti, Weather by CustomWeather, © 2015

Note: Actual official high and low records may vary slightly from our data, if they occured in-between our weather recording intervals... More about our weather records

Advertising

Funafuti weather history for previous 24 hours

 ConditionsComfort  
Time TempWeatherWind HumidityBarometerVisibility
7:00 AM
Sat, May 23
82 °FScattered showers. Broken clouds.2 mph89%29.86 "HgN/A
6:00 AM82 °FScattered showers. Overcast.2 mph84%29.83 "HgN/A
5:00 AM82 °FScattered showers. Passing clouds.6 mph89%29.83 "HgN/A
4:00 AM81 °FPassing clouds.3 mph89%29.83 "HgN/A
3:00 AM82 °FScattered showers. Passing clouds.10 mph84%29.83 "HgN/A
2:00 AM82 °FPassing clouds.3 mph89%29.83 "HgN/A
1:00 AM82 °FPassing clouds.7 mph84%29.86 "HgN/A
12:00 AM82 °FPassing clouds.9 mph84%29.86 "HgN/A
11:00 PM
Fri, May 22
82 °FScattered showers. Partly cloudy.8 mph84%29.86 "HgN/A
10:00 PM82 °FPassing clouds.9 mph89%29.86 "HgN/A
9:00 PM82 °FPartly cloudy.9 mph84%29.86 "HgN/A
8:00 PM82 °FPassing clouds.9 mph84%29.83 "HgN/A
7:00 PM82 °FScattered showers. Partly cloudy.3 mph89%29.83 "HgN/A
6:00 PM82 °FScattered showers. Partly cloudy.6 mph89%29.80 "HgN/A
5:00 PM82 °FScattered showers. Cloudy.8 mph89%29.80 "HgN/A
4:00 PM84 °FScattered showers. Broken clouds.5 mph84%29.80 "HgN/A
3:00 PM82 °FScattered showers. Broken clouds.7 mph94%29.83 "HgN/A
2:00 PM82 °FScattered showers. More clouds than sun.7 mph89%29.83 "HgN/A
1:00 PM81 °FScattered showers. More clouds than sun.5 mph89%29.83 "HgN/A
12:00 PM81 °FSprinkles. Mostly cloudy.10 mph94%29.86 "HgN/A
11:00 AM81 °FSprinkles. Mostly cloudy.3 mph94%29.89 "HgN/A
10:00 AM81 °FSprinkles. More clouds than sun.3 mph84%29.89 "HgN/A
9:00 AM79 °FScattered showers. Broken clouds.3 mph94%29.89 "HgN/A
8:00 AM75 °FRain showers. Mostly cloudy.2 mph100%29.89 "HgN/A
Weather by CustomWeather, © 2015

See weather overviewHow to use our weather pages